Regional Weather Roundup
Issued by NWS

Home | Current Version | Previous Version | Graphics & Text | Print | Product List | Glossary On
Versions: 1 2 3 4 5 6 7 8 9 10 11 12 13 14 15 16 17 18 19 20 21 22 23 24 25 26 27 28 29 30 31 32 33 34 35 36 37 38 39 40 41 42 43 44 45 46 47 48 49 50
000
ASUS44 KMEG 060800
RWRTN
TENNESSEE HOURLY STATE WEATHER ROUNDUP
NATIONAL WEATHER SERVICE MEMPHIS TN
300 AM CDT FRI MAY 06 2016

TNZ002-004-019-021-049-052-054-088>092-060900-
WEST TENNESSEE

CITY           SKY/WX    TMP DP  RH WIND       PRES   REMARKS
MEMPHIS INTL   PTCLDY    53  43  68 CALM      30.03F
NWS MEMPHIS      N/A     47 N/A N/A MISG        N/A
JACKSON        CLEAR     44  41  89 CALM      30.02S
DYERSBURG      PTCLDY    46  45  93 CALM      30.03S
UNION CITY     CLEAR     45  45 100 CALM      30.00F
LEXINGTON      CLEAR     39  39 100 CALM      29.99S
$$

TNZ008-025-027-028-033-062-065-066-060900-
NORTH MIDDLE TENNESSEE

CITY           SKY/WX    TMP DP  RH WIND       PRES   REMARKS
NASHVILLE      CLEAR     49  43  80 W6        29.96F
CLARKSVILLE    CLEAR     45  42  89 W6        29.98S
COOKEVILLE       N/A     39  39 100 CALM      29.92F VSB 1
CROSSVILLE     CLEAR     46  42  86 NW9       29.91F
$$

TNZ061-075-076-078-094-096-097-060900-
SOUTH MIDDLE TENNESSEE

CITY           SKY/WX    TMP DP  RH WIND       PRES   REMARKS
TULLAHOMA      CLEAR     43  43 100 W5        29.95F
WINCHESTER     CLEAR     43  43 100 CALM      29.96S
MCMINNVILLE    CLEAR     43  43 100 CALM      29.94S
COLUMBIA       CLEAR    N/A N/A N/A CALM      29.96F
SHELBYVILLE    CLEAR     43  43 100 CALM      29.97S
$$

TNZ017-018-042-046-047-060900-
NORTHEAST TENNESSEE

CITY           SKY/WX    TMP DP  RH WIND       PRES   REMARKS
TRI CITIES     CLOUDY    49  44  83 SW6       29.82S
$$

TNZ012-013-036-069-073-074-060900-
CENTRAL EAST TENNESSEE

CITY           SKY/WX    TMP DP  RH WIND       PRES   REMARKS
KNOXVILLE      CLOUDY    49  44  83 SW6       29.89F
OAK RIDGE      CLEAR     51  43  74 NW7       29.90F
GATLINBURG     CLOUDY    48  43  81 SW3       29.88S
$$

TNZ083-085-099-060900-
SOUTHEAST TENNESSEE

CITY           SKY/WX    TMP DP  RH WIND       PRES   REMARKS
CHATTANOOGA    CLEAR     46  42  86 CALM      29.92F
$$

SKY/WX REPORTED AS FAIR MEANS FEW OR NO CLOUDS BELOW
12 THOUSAND FEET.





USA.gov is the U.S. government's official web portal to all federal, state and local government web resources and services.